Tracking 29892 objects as of 21-Nov-2024
HD Live streaming from Space Station
objects crossing your sky now

STARLINK-3839

Track STARLINK-3839 now!
10-day predictions
STARLINK-3839 is classified as:


NORAD ID: 52480
Int'l Code: 2022-049AF
Perigee: 545.9 km
Apogee: 547.8 km
Inclination: 53.2 °
Period: 95.4 minutes
Semi major axis: 6917 km
RCS: Unknown
Launch date: May 6, 2022
Source: United States (US)
Launch site: AIR FORCE EASTERN TEST RANGE (AFETR)
Your satellite tracking list
Your tracking list is empty




NASA's NSSDC Master Catalog

Two Line Element Set (TLE):
1 52480U 22049AF  24325.54801128 -.00000281  00000-0  41596-6 0  9994
2 52480  53.2174  27.6260 0001375  93.4440 266.6709 15.08849148140836
Source of the keplerian elements: AFSPC